Location: Laupheim
(48.2265°N, 9.8829°E)
Time: 08:15:30
(UTC+01:00)

ISS - Pass Details

Date: 12 January 2018
Orbit: 402 x 406 km, 51.6° (Epoch: 16 January)

Event Time Altitude Azimuth Distance (km) Brightness Sun altitude
Exits shadow 06:24:51 43° 257° (WSW) 581 -3.5 -16.6°
Maximum altitude 06:25:34 55° 209° (SSW) 493 -3.6 -16.5°
Drops below altitude 10° 06:28:46 10° 131° (SE) 1,461 0.0 -16.0°
Sets 06:30:52 0° 127° (SE) 2,318 1.4 -15.6°
